Printer-friendly version

IAU Minor Planet Center

Minor Planet Center

MPEC 2006-T19 : 2006 TN

The following Minor Planet Electronic Circular may be linked-to from your own Web pages, but must not otherwise be redistributed electronically.


Read MPEC 2006-T18 Read MPEC 2006-T20


M.P.E.C. 2006-T19                                Issued 2006 Oct. 3, 13:18 UT

     The Minor Planet Electronic Circulars contain information on unusual
         minor planets and routine data on comets.  They are published
   on behalf of Commission 20 of the International Astronomical Union by the
          Minor Planet Center, Smithsonian Astrophysical Observatory,
                          Cambridge, MA 02138, U.S.A.

             Prepared using the Tamkin Foundation Computer Network

                              MPC@CFA.HARVARD.EDU
          URL http://cfa-www.harvard.edu/iau/mpc.html  ISSN 1523-6714

                                    2006 TN

Observations:
     K06T00N  C2006 10 02.30103 01 17 42.86 +00 23 41.7          21.2 V ET019G96
     K06T00N  C2006 10 02.30662 01 17 42.28 +00 23 41.0          20.9 V ET019G96
     K06T00N  C2006 10 02.31220 01 17 41.64 +00 23 41.1          21.2 V ET019G96
     K06T00N  C2006 10 02.31782 01 17 40.99 +00 23 41.0          21.5 V ET019G96
     K06T00N* C2006 10 02.35071 01 17 37.32 +00 23 40.9          20.4 V ET019G96
     K06T00N  C2006 10 02.35792 01 17 36.52 +00 23 41.5          20.8 V ET019G96
     K06T00N  C2006 10 02.36507 01 17 35.70 +00 23 41.1          20.9 V ET019G96
     K06T00N  C2006 10 02.37218 01 17 34.94 +00 23 41.2          20.9 V ET019G96
     K06T00N  C2006 10 03.05787 01 16 20.22 +00 23 35.6                 ET019J95
     K06T00N  C2006 10 03.06360 01 16 19.38 +00 23 36.2                 ET019J95
     K06T00N  C2006 10 03.06982 01 16 18.77 +00 23 34.2                 ET019J95
     K06T00N  C2006 10 03.07556 01 16 18.10 +00 23 35.2          20.6 R ET019J95
     K06T00N  C2006 10 03.32295 01 15 51.08 +00 23 36.6          21.4 V ET019G96
     K06T00N  C2006 10 03.32817 01 15 50.50 +00 23 36.4          21.5 V ET019G96
     K06T00N  C2006 10 03.33041 01 15 50.24 +00 23 37.1                 ET019291
     K06T00N  C2006 10 03.33339 01 15 49.90 +00 23 36.4          21.9 V ET019G96
     K06T00N  C2006 10 03.33425 01 15 49.82 +00 23 36.8                 ET019291
     K06T00N  C2006 10 03.33809 01 15 49.38 +00 23 36.8                 ET019291
     K06T00N  C2006 10 03.33875 01 15 49.32 +00 23 36.6          21.5 V ET019G96

Observer details:
291 LPL/Spacewatch II.  Observer T. H. Bressi.  1.8-m f/2.7 reflector + CCD.
G96 Mt. Lemmon Survey.  Observer E. C. Beshore.  Measurers E. C. Beshore,
    E. J. Christensen, G. J. Garradd, A. R. Gibbs, A. D. Grauer, R. E. Hill,
    R. A. Kowalski, S. M. Larson, R. H. McNaught.  1.5-m reflector + CCD.
J95 Great Shefford.  Observer P. Birtwhistle.  0.40-m f/6.0 Schmidt-Cassegrain
    + CCD.

Orbital elements:
2006 TN                                                  Earth MOID = 0.1119 AU
Epoch 2006 Sept. 22.0 TT = JDT 2454000.5                MPC
M 211.31096              (2000.0)            P               Q
n   0.52424701     Peri.  146.43024     -0.97831500     -0.16748374
a   1.5232765      Node    24.80301     +0.05608664     -0.78056647
e   0.2896600      Incl.   16.88669     +0.19938415     -0.60221689
P   1.88           H   19.5           G   0.15           U   9
Residuals in seconds of arc
061002 G96  0.4-  0.3+    061002 G96  0.3+  0.2+    061003 291  0.1-  0.2+
061002 G96  0.3+  0.4-    061003 J95  1.7+  0.3+    061003 G96  0.1-  0.4-
061002 G96  0.1+  0.3-    061003 J95  1.3-  0.9+    061003 291  0.1+  0.0
061002 G96  0.2-  0.3-    061003 J95  0.0   1.1-    061003 291  0.0   0.0
061002 G96  0.0   0.2-    061003 J95  0.4-  0.0     061003 G96  0.4+  0.2-
061002 G96  0.1+  0.4+    061003 G96  0.1-  0.2-
061002 G96  0.2-  0.1+    061003 G96  0.1+  0.4-

Ephemeris:
2006 TN                  a,e,i = 1.52, 0.29, 17                  q = 1.0820
Date    TT    R. A. (2000) Decl.     Delta      r     Elong.  Phase     V
2006 10 02    01 18.26   +00 23.8    0.920    1.911   167.9     6.3    21.2
2006 10 12    00 59.35   +00 26.2    0.900    1.894   172.9     3.7    21.0
2006 10 22    00 40.37   +00 39.5    0.906    1.875   160.9    10.0    21.3
2006 11 01    00 23.89   +01 08.7    0.939    1.855   147.6    16.7    21.6
2006 11 11    00 11.68   +01 55.4    0.992    1.832   135.1    22.4    21.9

Timothy B. Spahr             (C) Copyright 2006 MPC           M.P.E.C. 2006-T19

Read MPEC 2006-T18 Read MPEC 2006-T20


Our Web policy. Index to the CBAT/MPC/ICQ pages.


Valid HTML 4.01!